�N����,����,�~����,�C��,���x,�C��,����,���ϕ���,�ő�u�ԕ���,�ő厞����,���˗�,�I�_���x,�n�����x,�ő啗���N��,DTYPE
"23/09/13","00:10",0.0,22.9,95.2,1007.1,279.3,0.7,1.0,290.0,0.00,22.1,24.8,"00:07:28",1
"23/09/13","00:20",0.0,22.8,95.2,1007.4,297.4,0.8,1.4,321.1,0.00,22.0,24.8,"00:10:56",1
"23/09/13","00:30",0.0,22.7,95.3,1007.4,290.4,0.5,0.9,312.8,0.00,21.9,24.8,"00:20:08",1
"23/09/13","00:40",0.0,22.6,95.4,1007.6,307.5,0.7,1.3,326.8,0.00,21.9,24.7,"00:39:36",1
"23/09/13","00:50",0.0,22.7,95.5,1007.6,328.2,1.0,1.2,327.8,0.00,22.0,24.7,"00:48:32",1
"23/09/13","01:00",0.0,22.7,95.4,1007.4,318.1,0.8,1.2,319.3,0.00,22.0,24.7,"00:50:02",1
"23/09/13","01:10",0.0,22.4,95.5,1007.4,306.5,0.7,1.0,311.4,0.00,21.7,24.6,"01:00:08",1
"23/09/13","01:20",0.0,22.4,95.6,1007.4,317.0,1.0,1.2,317.4,0.00,21.7,24.8,"01:10:24",1
"23/09/13","01:30",0.0,22.3,95.6,1007.1,307.4,0.8,1.1,314.4,0.00,21.6,24.8,"01:20:32",1
"23/09/13","01:40",0.0,22.2,95.7,1007.6,313.9,1.1,1.3,310.7,0.00,21.5,24.7,"01:31:44",1
"23/09/13","01:50",0.0,22.2,95.8,1007.6,303.1,1.0,1.2,302.7,0.00,21.5,24.6,"01:46:40",1
"23/09/13","02:00",0.0,22.1,95.8,1007.6,291.6,0.8,1.2,264.2,0.00,21.4,24.6,"01:54:00",1
"23/09/13","02:10",0.0,22.0,95.9,1007.8,305.3,0.8,1.2,323.3,0.00,21.4,24.6,"02:04:24",1
"23/09/13","02:20",0.0,22.0,96.0,1007.4,303.0,1.1,1.7,331.1,0.00,21.4,24.5,"02:14:48",1
"23/09/13","02:30",0.0,22.1,96.0,1007.4,311.5,1.5,2.2,309.4,0.00,21.5,24.6,"02:29:36",1
"23/09/13","02:40",0.0,22.1,96.1,1007.1,313.8,1.3,2.4,330.6,0.00,21.5,24.6,"02:30:32",1
"23/09/13","02:50",0.0,22.1,96.1,1007.6,317.0,1.3,2.4,332.5,0.00,21.5,24.4,"02:41:20",1
"23/09/13","03:00",0.0,22.0,96.2,1007.4,273.6,0.7,1.2,248.0,0.00,21.4,24.5,"02:56:40",1
"23/09/13","03:10",0.0,21.9,96.2,1007.1,308.2,1.1,1.4,314.6,0.00,21.3,24.6,"03:04:24",1
"23/09/13","03:20",0.0,21.8,96.2,1007.4,308.3,0.7,1.4,310.0,0.00,21.2,24.5,"03:10:24",1
"23/09/13","03:30",0.0,21.7,96.3,1007.8,309.4,0.7,1.2,316.7,0.00,21.1,24.2,"03:29:28",1
"23/09/13","03:40",0.0,21.7,96.3,1007.4,312.0,1.0,1.6,320.9,0.00,21.1,24.5,"03:30:48",1
"23/09/13","03:50",0.0,21.6,96.4,1007.6,300.4,0.5,0.9,322.4,0.00,21.0,24.4,"03:40:08",1
"23/09/13","04:00",0.0,21.6,96.5,1007.6,316.8,1.0,1.3,307.5,0.00,21.1,24.1,"03:55:36",1
"23/09/13","04:10",0.0,21.5,96.5,1007.6,317.8,1.1,1.4,320.2,0.00,21.0,24.2,"04:08:56",1
"23/09/13","04:20",0.0,21.5,96.5,1007.4,295.0,0.8,1.4,315.2,0.00,21.0,24.2,"04:17:28",1
"23/09/13","04:30",0.0,21.4,96.5,1007.6,311.0,0.8,1.3,317.6,0.00,20.9,24.3,"04:20:32",1
"23/09/13","04:40",0.0,21.3,96.6,1007.4,318.7,1.1,1.3,313.1,0.00,20.8,24.0,"04:31:36",1
"23/09/13","04:50",0.0,21.3,96.6,1007.4,310.3,1.0,1.3,319.5,0.00,20.8,24.2,"04:41:52",1
"23/09/13","05:00",0.0,21.3,96.6,1007.6,309.2,1.0,1.4,316.3,0.00,20.8,24.3,"04:55:52",1
"23/09/13","05:10",0.0,21.4,96.7,1007.4,292.2,1.0,1.7,312.3,0.00,20.9,24.2,"05:09:36",1
"23/09/13","05:20",0.0,21.4,96.7,1007.6,290.9,0.8,1.6,314.2,0.00,20.9,24.2,"05:11:20",1
"23/09/13","05:30",0.0,21.4,96.7,1007.6,313.0,1.0,1.3,328.5,0.00,20.9,24.0,"05:29:28",1
"23/09/13","05:40",0.0,21.5,96.8,1007.6,315.0,1.2,2.1,319.3,0.00,21.0,23.9,"05:33:04",1
"23/09/13","05:50",0.0,21.6,96.8,1007.6,324.4,1.2,1.8,326.2,0.00,21.1,24.0,"05:45:44",1
"23/09/13","06:00",0.0,21.7,96.8,1007.8,301.4,0.7,1.3,318.7,0.00,21.2,24.0,"05:50:08",1
"23/09/13","06:10",0.0,22.0,96.8,1007.8,298.1,0.5,1.2,319.4,0.00,21.5,24.2,"06:03:44",1
"23/09/13","06:20",0.0,22.4,96.7,1007.8,282.4,0.1,0.4,272.0,0.03,21.9,24.0,"06:14:40",1
"23/09/13","06:30",0.0,23.0,96.6,1007.8,288.5,0.1,0.4,280.2,0.06,22.5,23.9,"06:23:52",1
"23/09/13","06:40",0.0,23.5,96.4,1007.6,301.6,0.1,0.4,290.7,0.07,22.9,24.1,"06:30:08",1
"23/09/13","06:50",0.0,23.9,96.4,1007.6,280.3,0.2,0.5,257.0,0.08,23.3,24.0,"06:42:40",1
"23/09/13","07:00",0.0,24.6,96.3,1007.8,349.9,0.7,1.7,348.0,0.10,24.0,24.3,"06:58:24",1
"23/09/13","07:10",0.0,24.8,96.2,1007.8,337.8,0.8,1.7,340.3,0.13,24.2,23.8,"07:00:40",1
"23/09/13","07:20",0.0,24.6,95.8,1008.1,316.8,0.6,1.2,343.2,0.14,23.9,23.9,"07:12:40",1
"23/09/13","07:30",0.0,24.5,94.9,1007.4,277.4,0.3,0.8,349.2,0.14,23.7,24.1,"07:22:16",1
"23/09/13","07:40",0.0,25.4,95.0,1007.8,149.5,0.3,1.0,116.7,0.13,24.6,24.2,"07:35:28",1
"23/09/13","07:50",0.0,26.0,94.2,1007.1,47.9,0.2,0.9,108.3,0.15,25.0,24.2,"07:42:24",1
"23/09/13","08:00",0.0,25.9,93.1,1006.9,59.6,0.5,1.1,39.3,0.16,24.7,24.1,"07:58:24",1
"23/09/13","08:10",0.0,26.3,91.4,1007.4,358.9,0.6,1.7,348.1,0.18,24.8,24.1,"08:06:20",1
"23/09/13","08:20",0.0,27.0,89.2,1007.6,353.5,0.6,1.7,15.5,0.20,25.1,24.3,"08:12:00",1
"23/09/13","08:30",0.0,27.5,84.9,1007.6,351.8,0.7,1.8,23.8,0.22,24.8,24.2,"08:24:40",1
"23/09/13","08:40",0.0,28.3,80.6,1008.1,137.2,0.7,1.9,113.1,0.24,24.7,24.3,"08:36:48",1
"23/09/13","08:50",0.0,28.7,77.3,1008.1,124.0,0.7,1.9,116.3,0.27,24.4,24.1,"08:45:36",1
"23/09/13","09:00",0.0,29.3,73.8,1008.3,119.1,0.7,2.1,42.0,0.30,24.2,24.3,"08:54:32",1
"23/09/13","09:10",0.0,29.7,73.1,1008.3,104.3,0.8,2.0,68.1,0.33,24.4,24.3,"09:02:24",1
"23/09/13","09:20",0.0,29.3,71.9,1008.6,166.4,1.3,2.5,231.5,0.34,23.7,24.4,"09:13:36",1
"23/09/13","09:30",0.0,29.2,73.0,1008.1,168.3,1.0,2.2,116.6,0.28,23.9,24.4,"09:20:08",1
"23/09/13","09:40",0.0,30.1,70.6,1008.8,99.0,0.8,2.0,115.7,0.41,24.2,24.3,"09:39:36",1
"23/09/13","09:50",0.0,30.2,69.3,1008.6,178.6,1.1,2.5,197.8,0.40,24.0,24.3,"09:46:00",1
"23/09/13","10:00",0.0,29.3,68.5,1008.6,143.9,1.0,2.0,108.8,0.13,22.9,24.6,"09:53:52",1
"23/09/13","10:10",0.0,29.2,72.1,1008.1,172.8,1.0,2.7,229.4,0.22,23.7,24.5,"10:05:04",1
"23/09/13","10:20",0.0,30.5,71.4,1008.6,205.7,1.1,4.3,201.8,0.48,24.8,24.5,"10:17:52",1
"23/09/13","10:30",0.0,30.6,68.2,1008.8,165.4,1.6,3.5,191.8,0.47,24.1,24.7,"10:27:28",1
"23/09/13","10:40",0.0,30.9,66.8,1008.8,180.0,1.5,4.0,228.7,0.44,24.0,24.8,"10:38:40",1
"23/09/13","10:50",0.0,30.7,65.4,1008.8,201.4,2.0,4.9,206.3,0.49,23.5,24.5,"10:48:40",1
"23/09/13","11:00",0.0,31.3,64.1,1008.8,200.2,1.3,3.4,189.6,0.51,23.7,24.7,"10:58:32",1
"23/09/13","11:10",0.0,31.5,63.3,1008.6,166.2,2.0,4.4,194.4,0.52,23.7,25.0,"11:07:28",1
"23/09/13","11:20",0.2,31.6,63.3,1008.3,172.3,1.3,3.1,179.8,0.43,23.8,24.8,"11:10:08",1
"23/09/13","11:30",0.0,31.9,64.0,1008.1,173.5,1.0,2.9,215.7,0.41,24.3,25.1,"11:23:52",1
"23/09/13","11:40",0.0,32.4,60.7,1008.3,190.0,1.5,4.0,216.3,0.51,23.9,25.2,"11:36:40",1
"23/09/13","11:50",0.0,32.2,59.1,1008.6,173.2,1.7,3.9,207.5,0.52,23.2,25.2,"11:49:36",1
"23/09/13","12:00",0.0,33.0,59.2,1008.6,160.9,1.2,2.6,229.9,0.53,24.0,25.2,"11:57:44",1
"23/09/13","12:10",0.0,32.8,58.9,1008.6,153.6,1.2,2.6,137.2,0.41,23.7,25.1,"12:07:36",1
"23/09/13","12:20",0.0,32.7,60.0,1008.1,108.6,1.0,3.5,37.2,0.34,24.0,25.4,"12:13:28",1
"23/09/13","12:30",0.0,32.0,59.3,1008.1,182.4,1.3,3.3,225.3,0.24,23.1,25.3,"12:29:12",1
"23/09/13","12:40",0.0,31.8,59.1,1007.8,193.1,1.2,3.4,235.2,0.26,22.9,25.4,"12:30:24",1
"23/09/13","12:50",0.0,31.2,62.2,1007.1,157.3,1.0,2.7,218.7,0.15,23.1,25.6,"12:40:40",1
"23/09/13","13:00",0.0,31.4,62.5,1007.1,131.6,1.0,2.2,97.4,0.17,23.4,25.6,"12:55:04",1
"23/09/13","13:10",0.0,31.2,60.9,1006.7,160.4,1.0,3.2,153.9,0.14,22.8,25.7,"13:04:40",1
"23/09/13","13:20",0.0,32.5,58.5,1006.4,179.0,1.1,2.9,170.6,0.41,23.3,25.6,"13:16:00",1
"23/09/13","13:30",0.0,32.2,59.7,1006.7,215.8,0.6,1.2,125.7,0.12,23.4,25.6,"13:28:40",1
"23/09/13","13:40",0.0,32.0,59.7,1006.7,102.1,0.8,2.5,229.4,0.15,23.2,25.8,"13:32:08",1
"23/09/13","13:50",0.0,31.9,62.0,1006.2,304.9,0.6,1.8,348.6,0.11,23.8,25.7,"13:41:28",1
"23/09/13","14:00",0.0,31.5,61.4,1006.0,136.8,0.8,2.2,195.1,0.14,23.2,25.8,"13:51:20",1
"23/09/13","14:10",0.0,31.9,59.8,1006.4,78.7,0.8,1.7,105.3,0.14,23.2,25.7,"14:04:24",1
"23/09/13","14:20",0.0,31.8,60.2,1006.2,28.6,0.7,2.2,22.0,0.11,23.2,25.9,"14:11:44",1
"23/09/13","14:30",0.0,32.4,61.1,1006.0,43.5,0.7,1.9,2.2,0.21,24.0,25.7,"14:22:32",1
"23/09/13","14:40",0.0,33.1,56.8,1006.0,24.1,1.1,2.7,4.6,0.31,23.4,25.8,"14:31:36",1
"23/09/13","14:50",0.0,32.9,57.4,1006.2,86.3,0.6,1.9,71.0,0.15,23.4,25.9,"14:42:16",1
"23/09/13","15:00",0.0,32.2,58.1,1006.0,50.0,0.7,1.8,29.2,0.09,23.0,25.8,"14:56:08",1
"23/09/13","15:10",0.0,33.3,56.9,1006.0,15.2,1.1,2.0,355.5,0.34,23.6,25.9,"15:08:56",1
"23/09/13","15:20",0.0,33.8,53.5,1006.7,348.7,1.1,1.9,341.0,0.27,23.1,25.7,"15:13:04",1
"23/09/13","15:30",0.0,33.5,55.7,1006.4,310.9,0.5,1.4,297.3,0.19,23.5,26.2,"15:20:16",1
"23/09/13","15:40",0.0,33.0,56.8,1006.2,349.4,0.7,1.6,336.1,0.08,23.3,26.0,"15:34:32",1
"23/09/13","15:50",0.0,32.8,58.2,1006.2,16.5,0.6,1.6,11.4,0.12,23.5,26.3,"15:42:00",1
"23/09/13","16:00",0.0,32.8,57.8,1005.7,232.8,0.7,1.8,343.1,0.13,23.4,26.1,"15:59:44",1
"23/09/13","16:10",0.0,33.2,56.4,1005.7,23.2,1.0,2.4,318.0,0.18,23.4,26.2,"16:02:16",1
"23/09/13","16:20",0.0,33.8,53.5,1006.0,41.1,0.7,3.4,26.3,0.16,23.1,26.3,"16:13:28",1
"23/09/13","16:30",0.0,33.5,54.0,1006.0,61.6,1.3,2.8,10.3,0.13,23.0,26.2,"16:26:32",1
"23/09/13","16:40",0.0,33.0,55.3,1006.2,167.7,1.2,2.0,195.9,0.11,22.9,26.3,"16:32:08",1
"23/09/13","16:50",0.0,33.0,54.6,1006.0,122.3,0.6,1.8,129.2,0.08,22.7,26.3,"16:45:04",1
"23/09/13","17:00",0.0,32.8,55.9,1005.7,84.0,0.7,1.9,120.9,0.05,22.9,26.5,"16:56:56",1
"23/09/13","17:10",0.0,32.3,55.8,1005.7,104.2,0.7,2.7,59.0,0.02,22.4,26.3,"17:09:12",1
"23/09/13","17:20",0.0,32.0,58.5,1005.2,59.3,0.5,1.7,18.9,0.00,22.9,26.5,"17:10:48",1
"23/09/13","17:30",0.0,31.8,60.3,1005.2,101.7,0.2,1.0,114.9,0.00,23.2,26.5,"17:23:04",1
"23/09/13","17:40",0.0,31.2,60.0,1005.2,136.5,0.3,2.4,359.5,0.00,22.6,26.3,"17:32:32",1
"23/09/13","17:50",0.0,30.6,62.0,1005.0,354.1,0.6,1.4,16.1,0.00,22.5,26.4,"17:44:00",1
"23/09/13","18:00",0.0,30.1,63.9,1004.5,30.4,0.3,1.0,96.3,0.00,22.6,26.3,"17:57:52",1
"23/09/13","18:10",0.0,29.8,64.9,1004.5,44.2,0.5,1.3,38.1,0.00,22.5,26.4,"18:02:08",1
"23/09/13","18:20",0.0,29.5,66.5,1004.5,131.4,0.5,1.6,201.7,0.00,22.6,26.2,"18:19:44",1
"23/09/13","18:30",0.0,29.2,68.2,1003.8,151.3,0.7,1.6,203.4,0.00,22.8,26.3,"18:29:20",1
"23/09/13","18:40",0.0,29.3,68.7,1004.1,180.4,1.0,2.5,209.3,0.00,23.0,26.2,"18:37:04",1
"23/09/13","18:50",0.0,29.1,69.6,1004.3,209.1,1.0,1.8,225.8,0.00,23.0,26.2,"18:43:36",1
"23/09/13","19:00",0.0,28.6,71.2,1004.5,184.8,0.6,1.6,231.5,0.00,22.9,26.2,"18:52:40",1
"23/09/13","19:10",0.0,28.2,72.7,1004.8,214.2,0.2,0.6,186.2,0.00,22.9,26.2,"19:00:08",1
"23/09/13","19:20",0.0,27.8,73.8,1005.0,248.3,0.3,0.9,258.6,0.00,22.7,26.2,"19:19:44",1
"23/09/13","19:30",0.0,27.8,75.8,1005.2,301.1,0.6,1.1,338.5,0.00,23.2,26.1,"19:28:48",1
"23/09/13","19:40",0.0,27.4,77.0,1005.5,336.9,0.6,1.2,349.5,0.00,23.0,25.9,"19:30:08",1
"23/09/13","19:50",0.0,26.9,79.1,1006.2,343.8,0.7,1.2,349.3,0.00,23.0,26.0,"19:49:12",1
"23/09/13","20:00",0.0,26.5,80.8,1006.0,322.9,0.6,1.4,328.7,0.00,23.0,26.2,"19:51:44",1
"23/09/13","20:10",0.0,26.3,81.9,1006.4,305.3,0.5,1.3,341.9,0.00,23.0,26.1,"20:02:56",1
"23/09/13","20:20",0.0,26.0,83.1,1006.4,314.7,0.6,1.0,305.0,0.00,22.9,26.1,"20:19:04",1
"23/09/13","20:30",0.0,25.8,83.9,1006.4,336.7,0.6,1.1,311.5,0.00,22.9,26.0,"20:20:24",1
"23/09/13","20:40",0.0,25.6,84.5,1006.7,303.2,0.5,0.8,309.2,0.00,22.8,26.1,"20:33:20",1
"23/09/13","20:50",0.0,25.5,85.2,1006.7,326.3,0.6,0.9,304.0,0.00,22.9,25.8,"20:44:16",1
"23/09/13","21:00",0.0,25.3,85.7,1006.4,286.1,0.5,0.9,315.1,0.00,22.8,25.8,"20:59:28",1
"23/09/13","21:10",0.0,25.3,86.2,1006.9,320.0,0.8,1.3,333.4,0.00,22.9,26.0,"21:04:00",1
"23/09/13","21:20",0.0,25.3,86.4,1007.4,310.9,0.7,1.4,321.6,0.00,22.9,25.9,"21:16:56",1
"23/09/13","21:30",0.0,25.5,86.3,1007.1,339.3,1.0,1.6,345.3,0.00,23.1,25.8,"21:23:44",1
"23/09/13","21:40",0.0,25.6,86.1,1007.4,338.9,0.8,2.0,329.0,0.00,23.1,25.7,"21:30:32",1
"23/09/13","21:50",0.0,25.7,85.8,1007.6,332.6,0.8,2.0,347.8,0.00,23.2,25.6,"21:47:52",1
"23/09/13","22:00",0.0,25.8,85.5,1007.4,332.9,1.0,1.3,331.9,0.00,23.2,25.7,"21:52:16",1
"23/09/13","22:10",0.0,25.9,85.3,1007.4,336.4,0.8,1.3,339.4,0.00,23.3,25.6,"22:06:56",1
"23/09/13","22:20",0.0,26.0,85.0,1007.4,339.3,0.7,1.3,352.6,0.00,23.3,25.7,"22:19:44",1
"23/09/13","22:30",0.0,26.0,84.8,1007.4,334.7,0.8,1.1,354.4,0.00,23.3,25.6,"22:20:24",1
"23/09/13","22:40",0.0,25.9,84.9,1007.6,337.4,0.7,1.3,319.1,0.00,23.2,25.9,"22:30:40",1
"23/09/13","22:50",0.0,25.8,84.9,1007.4,352.3,0.7,1.4,339.0,0.00,23.1,25.7,"22:48:40",1
"23/09/13","23:00",0.0,25.9,84.7,1007.4,347.0,0.7,1.3,3.7,0.00,23.2,25.7,"22:56:08",1
"23/09/13","23:10",0.0,25.9,84.5,1007.4,328.4,0.6,1.6,353.2,0.00,23.1,25.7,"23:00:48",1
"23/09/13","23:20",0.0,25.8,84.4,1007.4,298.3,0.2,0.8,269.8,0.00,23.0,25.5,"23:19:20",1
"23/09/13","23:30",0.0,25.7,84.3,1007.1,348.3,0.7,1.3,4.1,0.00,22.9,25.4,"23:25:20",1
"23/09/13","23:40",0.0,25.7,84.2,1006.9,98.3,0.1,0.5,120.9,0.00,22.9,25.6,"23:36:40",1
"23/09/13","23:50",0.0,25.3,84.7,1006.9,341.3,0.8,1.3,336.3,0.00,22.6,25.6,"23:46:40",1
"23/09/13","24:00",0.0,25.1,85.3,1006.9,332.2,0.7,1.2,334.6,0.00,22.5,25.4,"23:50:08",1
